sat.trackr.live / text

‹ back to catalog

SITRO-AIS 21

NORAD 61739 · 2024-199E

PAYLOAD ACTIVE UNKNOWN

§ Identity

Operator
Country
CIS
Launch date
2024-11-04
Launch site
VOSTO
Launch vehicle
Mass (kg)
RCS (m²)

External: N2YO · Heavens-Above · Gunter

§ Orbital elements

Epoch: 2026-09-22T21:45:40.078368Z

Period
96.29 min
Inclination
97.3218°
Eccentricity
0.0014021
Mean motion
14.95493937 rev/d
Perigee alt
571.1 km
Apogee alt
590.6 km
Semi-major
6,959.0 km
B*
1.1292e-4
RAAN
97.2890°
Arg perigee
92.7684°
Mean anomaly
267.5144°
Rev number
14,635

§ Raw data

SITRO-AIS 211 61739U 24199E   26265.90671387  .00001200  00000+0  11292-3 0  99932 61739  97.3218  97.2890 0014021  92.7684 267.5144 14.95493937146359

JSON: /api/v1/satellites/61739 · /tle

For live sub-satellite position, see the globe view (requires WebGL).

§ Visibility from observer

Set your observer location to see the next 7 days of passes ≥ 10°. The values pass through the URL so the page stays shareable.

No JS? Fill the form by hand. The geolocation button needs JavaScript.

§ Radio — SatNOGS DB

ModeDescriptionDownlinkUplink
GMSK USP Mode U - GMSK2k4 - USP 401.175 MHz

1 transmitter · refreshed weekly from db.satnogs.org